Home   Weather   Paris 11 Popincourt   Past weeks
Flag for France

Past Weather in Paris 11 Popincourt, Paris, France — Yesterday and Last 2 Weeks

Now
50 °F

Drizzle. Fog.


Feels Like: 48 °F
Forecast: 57 / 48 °F
Wind: 6 mph from West

Location: Villacoublay

Current Time: Oct 21, 2019 at 5:41:03 am

Latest Report: Oct 21, 2019 at 5:00 am


Visibility: 3 mi

Pressure: 29.80 "Hg

Humidity: 100%

Dew Point: 50 °F

Location of Paris 11 PopincourtLocation

Past Weather in Paris 11 Popincourt — Graph

°F

Paris 11 Popincourt Temperature Yesterday

Maximum temperature yesterday: 54 °F (at 12:00 am)
Minimum temperature yesterday: 50 °F (at 8:00 am)
Average temperature yesterday: 52 °F

High & Low Weather Summary for the Past Weeks

 TemperatureHumidityPressure
High75 °F (Oct 13, 1:30 pm)100% (Oct 6, 4:00 am)30.09 "Hg (Oct 6, 4:00 am)
Low50 °F (Oct 7, 4:00 am)50% (Oct 13, 2:00 pm)29.65 "Hg (Oct 14, 4:30 pm)
Average57 °F85%29.85 "Hg
* Reported Oct 6 4:00 am — Oct 21 4:00 am, Paris 11 Popincourt. Weather by CustomWeather, © 2019

Note: Actual official high and low records may vary slightly from our data, if they occured in-between our weather recording intervals... More about our weather records

Advertising

Paris 11 Popincourt Weather History for the Previous 24 Hours

Scroll right to see more
 ConditionsComfort  
Time TempWeatherWind HumidityBarometerVisibility
4:00 am
Mon, Oct 21
50 °FDrizzle. Fog.5 mph100%29.77 "Hg2 mi
3:30 am50 °FLow clouds.5 mph100%29.77 "Hg4 mi
3:00 am50 °FDrizzle. Fog.6 mph100%29.74 "Hg2 mi
2:00 am50 °FLight rain. Fog.8 mph100%29.74 "Hg2 mi
1:30 am50 °FLow clouds.8 mph100%29.74 "Hg5 mi
1:00 am50 °FLow clouds.8 mph100%29.74 "Hg4 mi
12:30 am50 °FLight rain. Mostly cloudy.7 mph100%29.74 "Hg4 mi
12:00 am50 °FLight rain. Fog.5 mph100%29.74 "Hg2 mi
11:30 pm
Sun, Oct 20
50 °FLight rain. Fog.8 mph100%29.74 "Hg2 mi
11:00 pm50 °FDrizzle. Fog.9 mph100%29.74 "Hg2 mi
10:30 pm50 °FLight rain. Fog.8 mph100%29.74 "Hg2 mi
10:00 pm50 °FLight rain. Fog.9 mph100%29.74 "Hg2 mi
9:30 pm50 °FDrizzle. Fog.12 mph100%29.71 "Hg2 mi
9:00 pm50 °FFog.14 mph100%29.71 "Hg2 mi
8:30 pm52 °FFog.14 mph94%29.71 "Hg2 mi
8:00 pm52 °FDrizzle. Fog.15 mph94%29.71 "Hg2 mi
7:30 pm52 °FDrizzle. Mostly cloudy.15 mph94%29.71 "Hg4 mi
7:00 pm52 °FDrizzle. Fog.13 mph94%29.71 "Hg2 mi
6:30 pm52 °FFog.12 mph94%29.71 "Hg2 mi
6:00 pm52 °FDrizzle. Fog.9 mph94%29.71 "Hg2 mi
5:30 pm52 °FDrizzle. Fog.8 mph94%29.71 "Hg3 mi
5:00 pm54 °FOvercast.12 mph82%29.71 "HgN/A
4:30 pm54 °FOvercast.10 mph82%29.71 "HgN/A
4:00 pm54 °FMostly cloudy.13 mph77%29.71 "HgN/A
3:30 pm54 °FOvercast.12 mph82%29.71 "HgN/A
3:00 pm54 °FOvercast.13 mph82%29.71 "HgN/A
2:30 pm54 °FOvercast.12 mph82%29.71 "HgN/A
2:00 pm54 °FBroken clouds.15 mph82%29.68 "HgN/A
1:30 pm54 °FBroken clouds.15 mph88%29.71 "HgN/A
1:00 pm52 °FLight rain. Broken clouds.14 mph94%29.68 "HgN/A
12:30 pm52 °FLight rain. Overcast.8 mph94%29.71 "HgN/A
12:00 pm52 °FLight rain. Mostly cloudy.7 mph94%29.71 "HgN/A
11:30 am52 °FLight rain. Overcast.8 mph88%29.71 "HgN/A
11:00 am52 °FLight rain. Partly sunny.10 mph88%29.71 "HgN/A
10:30 am52 °FPartly sunny.12 mph94%29.68 "HgN/A
10:00 am52 °FLight rain. Low clouds.10 mph94%29.68 "HgN/A
9:30 am52 °FLight rain. Partly sunny.9 mph94%29.68 "Hg5 mi
9:00 am50 °FLight rain. Broken clouds.9 mph100%29.68 "HgN/A
8:30 am50 °FRain. Partly sunny.7 mph100%29.71 "Hg4 mi
8:00 am50 °FLight rain. Clear.8 mph94%29.68 "HgN/A
7:30 am52 °FLight rain. Mostly cloudy.8 mph94%29.68 "HgN/A
7:00 am52 °FLight rain. Fog.7 mph100%29.71 "Hg3 mi
6:30 am52 °FLight rain. Mostly cloudy.6 mph100%29.71 "Hg4 mi
6:00 am52 °FLight rain. Fog.6 mph100%29.68 "Hg3 mi
5:30 am52 °FLight rain. Partly cloudy.5 mph100%29.68 "Hg4 mi
5:00 am52 °FLight rain. Mostly cloudy.2 mph100%29.71 "Hg4 mi
Weather by CustomWeather, © 2019

See weather overview